Theta_e
274 273 272 272 272 272 272 272 272 273 273 272 272 272 272 272 272 272 272 272 274 277 282 285 291 292 293 295 296 298 298 295 307 294 305 313 312 311 311 315 310 313 310
272 271 271 271 270 270 270 271 272 271 272 272 271 271 271 271 271 271 271 272 273 277 280 280 290 291 291 292 295 296 296 296 309 300 306 309 310 311 311 312 310 313 312
270 270 269 269 269 269 270 270 271 271 271 270 270 269 269 270 270 271 271 271 273 276 279 281 285 289 288 289 292 296 295 299 309 304 304 310 309 309 309 309 309 310 310
269 268 268 268 268 269 269 269 270 269 268 268 269 269 270 270 270 271 271 272 273 276 278 280 282 287 289 288 289 292 294 306 305 304 304 306 307 307 309 306 304 307 301
267 267 267 268 268 268 268 268 268 268 267 268 268 268 269 269 270 270 271 272 273 275 278 279 282 284 288 289 287 286 292 292 303 303 301 301 302 304 304 304 303 306 295
266 267 267 267 267 266 267 266 266 266 266 265 266 267 267 269 272 274 275 274 274 274 276 278 280 283 286 288 289 290 292 291 299 301 301 299 299 303 303 304 303 300 297
266 265 265 265 264 264 264 264 264 263 264 265 266 267 267 268 272 274 275 274 274 275 275 277 279 282 284 286 287 289 291 294 303 303 297 301 297 302 303 302 299 300 301
264 263 264 263 262 262 262 262 262 263 264 264 265 265 267 269 274 275 276 274 274 274 275 277 278 280 283 285 285 285 287 299 302 304 302 302 301 304 304 304 298 295 295
263 262 262 262 260 260 258 260 263 262 262 263 265 265 265 266 273 276 277 274 273 273 275 277 279 279 282 284 284 284 285 296 300 300 302 302 301 303 303 299 294 294 290
261 261 261 260 258 257 259 261 262 261 263 264 263 265 266 267 273 276 278 275 272 273 274 276 279 279 282 285 284 285 285 291 297 291 298 299 300 300 300 301 298 296 294
260 260 259 259 257 258 260 261 260 261 262 261 262 264 266 269 269 275 277 276 274 273 273 275 278 282 283 286 288 285 285 291 296 294 295 296 297 298 299 301 301 301 297
259 257 255 255 257 260 259 259 260 260 260 260 261 264 266 267 270 272 275 276 279 275 274 277 279 283 287 289 289 290 290 291 296 295 294 294 295 296 298 299 300 303 303
253 252 253 256 258 259 258 259 259 260 260 261 263 262 263 267 267 270 272 275 276 275 279 279 282 285 288 289 290 290 288 290 295 293 293 294 296 298 297 294 295 292 289
249 252 257 256 257 258 260 260 259 260 261 263 262 261 263 264 265 268 271 271 273 274 276 280 284 286 287 287 286 288 290 294 295 295 294 295 296 295 294 294 293 292 291
252 255 255 256 256 257 259 259 261 263 265 263 263 263 263 262 266 271 271 270 271 274 275 277 281 283 284 284 285 287 291 294 295 295 295 293 293 293 293 294 294 292 293
251 254 254 255 255 257 257 257 263 265 267 267 268 268 265 268 270 270 271 272 275 276 278 277 282 283 283 285 286 287 292 293 295 295 294 293 292 292 292 291 292 292 292
245 251 253 254 254 255 255 255 255 259 263 264 266 268 268 268 268 269 269 269 270 269 265 265 273 285 286 287 288 290 293 295 295 294 294 292 292 291 290 290 290 291 291
244 251 251 251 252 253 254 254 255 254 254 255 260 264 267 266 267 267 266 263 259 261 262 263 264 266 269 276 290 292 294 294 295 294 293 291 291 291 290 290 290 290 291
249 249 249 250 251 252 253 253 254 254 254 254 255 258 262 263 264 264 263 257 257 258 260 261 263 265 266 267 269 290 293 292 293 293 291 290 290 290 290 291 291 290 290
245 251 250 247 249 250 251 252 253 253 254 254 254 253 260 256 255 255 256 256 257 258 259 261 262 264 265 265 266 269 290 290 291 291 290 290 290 290 290 290 290 289 289
244 245 249 246 246 249 250 250 251 252 253 253 253 255 264 254 254 254 255 256 257 258 259 262 263 263 266 265 265 266 269 288 291 291 290 290 290 289 291 291 290 289 289
243 243 243 242 248 249 249 250 250 251 251 252 253 254 260 254 254 254 255 256 257 259 260 262 263 264 265 266 265 265 266 267 270 278 290 290 290 290 290 290 289 289 289
247 247 246 245 246 248 248 248 249 250 251 251 252 252 253 253 253 254 254 255 257 259 260 261 264 264 265 267 267 265 264 265 267 271 277 288 289 289 290 289 289 289 288
245 245 246 244 244 245 245 247 248 249 250 250 250 251 252 252 253 253 254 255 257 258 260 261 263 264 265 265 267 267 265 266 268 269 273 280 286 287 288 288 289 289 289
240 243 243 242 238 242 243 244 247 246 248 250 250 250 251 252 252 253 254 255 256 258 259 261 262 264 265 265 266 268 268 265 265 268 268 270 271 274 278 284 285 285 286
243 244 241 242 242 240 240 243 243 246 247 249 249 249 250 251 252 252 253 254 255 257 258 260 261 262 266 266 266 267 270 269 265 265 266 266 267 267 270 271 273 275 279
Wind_Speed
7 8 8 9 10 11 12 14 15 16 17 18 18 20 18 18 18 17 17 19 19 18 18 20 13 14 10 10 12 12 11 17 16 1 7 16 15 15 19 19 19 20 16
7 9 10 10 11 11 12 14 15 17 17 19 19 20 19 19 17 18 18 16 17 18 17 19 16 10 15 12 13 16 14 19 15 19 15 14 19 16 17 21 17 16 18
8 9 10 11 11 12 14 15 16 18 18 19 20 20 19 19 18 17 18 18 17 18 16 17 19 12 14 9 14 12 12 24 17 16 15 17 16 17 17 17 18 17 14
8 9 10 11 12 13 15 15 16 17 19 18 18 19 19 19 19 18 18 18 19 17 16 16 18 17 14 11 13 14 17 15 16 18 16 18 18 21 15 17 14 12 10
8 9 10 13 14 14 16 16 17 17 17 18 19 19 18 17 14 16 17 18 18 16 16 16 16 20 21 15 8 11 15 18 17 18 17 16 16 17 19 17 19 16 6
7 10 12 13 14 15 16 17 18 18 18 18 18 19 19 14 26 28 24 16 18 17 17 15 16 18 21 20 23 26 24 16 19 16 16 18 20 18 14 19 18 17 14
9 10 11 12 14 15 16 17 17 18 18 18 18 19 20 19 29 29 28 16 16 17 18 16 14 12 16 13 16 24 20 35 32 23 24 23 20 22 22 21 19 22 18
8 9 11 13 14 15 16 17 17 16 18 18 18 19 19 17 30 30 29 17 15 18 18 19 18 17 16 13 10 14 16 18 22 18 23 21 19 23 24 22 21 12 10
9 12 13 13 15 15 16 17 16 17 18 17 17 19 19 20 31 31 25 14 15 16 17 18 18 17 23 26 14 13 14 15 21 22 28 32 34 35 26 15 16 17 9
11 13 13 13 13 15 16 17 16 15 17 16 19 18 20 20 28 31 24 8 12 13 13 17 23 18 26 24 16 12 12 14 17 7 14 20 27 28 34 26 20 20 14
10 12 13 13 13 14 15 15 15 15 16 16 17 17 17 17 20 30 30 15 10 11 11 11 10 25 30 30 26 12 12 15 18 14 12 11 15 18 17 19 25 23 18
11 12 12 12 11 11 14 13 14 14 15 16 16 14 13 16 22 25 31 26 22 11 12 11 12 24 23 22 18 18 21 19 13 14 14 13 15 15 17 16 20 19 21
10 10 10 11 11 12 13 14 12 13 12 14 13 14 14 13 14 28 28 28 25 15 10 21 26 22 19 14 17 21 17 10 13 14 14 15 15 15 15 10 12 6 7
8 10 9 10 11 11 9 10 11 11 13 13 14 14 14 14 14 14 13 13 18 14 17 12 17 18 17 12 8 11 10 11 12 16 15 13 13 13 13 13 13 10 10
7 9 8 8 9 11 10 10 11 11 16 14 12 14 15 15 15 27 25 16 15 17 16 10 9 10 10 8 8 8 10 12 12 13 12 13 12 13 13 13 12 11 12
7 7 7 7 8 9 9 11 17 22 25 25 28 24 14 26 32 32 33 30 23 29 6 7 6 7 8 9 9 8 11 13 12 12 13 14 14 14 13 12 11 13 14
3 7 6 8 7 9 10 10 13 15 22 24 28 32 33 31 31 32 32 24 26 23 11 9 9 5 8 8 8 9 11 13 13 12 13 15 15 14 17 14 14 14 13
3 7 4 6 6 8 8 9 9 11 14 16 23 30 33 34 32 34 34 21 15 17 12 10 10 9 10 9 8 10 11 12 13 13 13 14 14 15 15 16 16 17 15
4 3 4 5 6 8 7 8 8 9 10 12 14 20 23 34 32 32 32 15 13 12 12 12 11 10 10 10 9 8 11 11 12 13 12 14 15 14 15 15 16 21 18
3 6 5 2 6 6 7 8 9 10 10 11 12 14 16 19 17 18 16 15 14 13 13 13 13 11 10 10 10 10 7 10 12 11 12 14 14 14 15 15 15 16 17
2 3 5 3 3 5 6 7 8 9 9 10 11 14 32 13 14 14 14 15 14 14 14 14 13 13 11 12 11 11 10 5 12 11 12 13 14 14 15 15 15 15 15
2 2 3 3 4 5 6 6 6 8 9 10 11 13 28 12 13 13 14 14 14 14 13 13 13 13 12 13 12 11 10 9 8 6 9 13 14 14 14 15 15 13 15
1 2 2 3 3 5 5 6 6 7 8 9 10 11 12 12 13 13 14 14 13 13 13 13 14 14 15 14 12 12 12 10 8 7 5 7 10 12 12 13 14 14 15
2 2 3 2 3 4 4 6 6 7 8 8 9 10 11 11 11 14 14 13 13 13 14 13 14 20 19 18 15 14 13 12 9 9 10 5 3 5 7 9 11 16 14
3 3 3 2 3 3 4 5 6 6 7 7 8 8 10 10 11 12 12 12 13 13 15 15 14 21 24 28 27 27 26 26 21 17 11 11 12 11 5 4 7 7 8
2 2 1 1 2 2 2 4 5 5 6 7 7 7 8 9 10 10 11 13 13 13 16 13 18 24 25 24 29 30 29 29 24 24 14 12 12 11 9 10 11 7 6
Wind_Direction
315 305 295 300 303 297 291 294 294 292 293 292 293 291 286 283 281 277 278 277 273 274 276 283 248 249 252 249 248 238 258 259 205 62 148 158 154 165 158 154 154 160 164
298 296 302 306 300 298 295 294 294 293 295 294 294 290 287 283 278 275 274 273 276 272 278 290 253 250 256 262 243 243 250 255 230 154 163 153 159 171 161 156 155 167 171
302 306 302 304 305 302 303 302 302 298 296 295 293 288 287 282 277 273 272 271 268 268 267 270 282 244 255 260 267 255 246 255 189 158 164 158 162 161 166 157 165 163 166
304 299 304 310 316 313 308 305 304 301 296 294 290 287 285 282 277 274 271 272 266 259 263 265 274 277 249 251 260 264 244 237 164 166 161 160 167 163 165 153 156 163 153
296 306 320 323 320 311 311 308 304 301 297 295 294 290 286 280 275 270 262 265 267 270 261 261 261 270 266 243 261 275 260 283 170 164 160 159 162 166 167 161 163 162 150
307 328 327 322 316 314 311 310 307 303 302 298 292 288 285 278 281 281 279 269 269 265 269 259 261 268 276 260 258 273 264 283 170 163 164 171 160 162 163 160 165 163 168
332 325 318 319 314 317 314 310 310 307 303 298 298 296 293 287 285 284 279 270 267 264 260 264 264 257 264 267 270 288 274 274 165 164 167 170 161 167 161 167 166 163 171
327 319 324 320 318 318 312 311 309 305 309 307 302 297 292 292 293 291 281 269 261 260 263 262 258 260 258 257 279 293 298 219 168 167 166 167 171 163 170 170 162 140 111
332 333 325 321 320 316 310 310 310 312 309 306 305 305 299 293 295 298 289 263 258 258 254 251 252 256 260 266 275 279 281 250 176 165 172 164 167 165 164 143 155 150 148
339 325 318 318 311 308 305 308 314 307 308 312 305 303 301 297 297 310 310 258 257 257 256 259 260 261 268 257 254 259 268 265 166 129 166 165 166 162 163 165 161 166 153
328 319 317 313 307 297 305 311 312 311 312 308 309 306 304 313 310 310 320 317 242 251 250 250 247 251 247 246 243 242 249 285 170 152 150 150 163 163 170 174 172 169 170
332 317 311 307 302 309 311 313 316 315 315 315 312 315 318 313 309 322 319 319 325 238 251 255 251 258 251 237 238 247 254 267 187 156 154 157 165 172 174 175 179 182 180
325 305 300 305 313 313 319 321 323 323 326 320 328 323 320 316 323 317 315 315 324 316 281 245 254 259 254 249 248 255 260 252 186 155 163 168 172 167 163 146 168 132 88
301 302 317 322 325 321 322 326 323 328 328 334 329 327 315 330 319 311 312 317 308 304 296 299 236 246 238 235 249 257 250 222 184 166 167 161 157 162 166 163 165 156 144
310 320 326 323 332 321 327 327 331 332 339 338 336 320 336 326 322 327 323 316 306 291 276 273 248 226 231 231 240 241 247 204 185 171 160 160 159 166 169 169 165 161 172
327 331 328 328 334 323 324 326 337 344 347 347 349 341 347 333 339 338 334 323 323 316 258 252 258 224 225 225 217 236 210 193 181 173 160 162 164 169 166 166 161 173 177
297 313 330 336 338 326 329 334 334 338 348 349 351 347 1 351 354 355 356 355 358 9 30 9 344 277 225 222 217 233 202 191 172 174 169 170 166 167 164 169 168 175 181
304 318 335 326 328 320 325 330 333 341 342 341 347 350 3 1 4 7 11 8 14 13 13 4 355 346 320 318 225 228 197 189 183 176 169 170 169 170 173 177 176 176 176
341 336 346 327 313 314 321 328 335 343 344 339 338 346 359 358 3 7 13 19 8 5 357 1 353 347 336 326 326 250 191 184 179 175 169 173 173 172 181 180 180 178 175
343 346 350 332 321 330 337 339 342 349 349 350 349 343 356 351 1 359 2 5 4 0 353 360 356 345 344 342 336 326 216 177 180 173 169 173 175 178 180 179 182 182 186
6 339 349 335 328 333 336 343 341 346 348 350 346 342 5 360 352 354 356 357 356 355 352 357 358 354 348 1 354 347 342 232 182 178 174 176 176 181 181 183 181 187 191
24 342 344 352 344 351 342 337 342 351 348 350 345 346 359 357 357 352 354 355 351 351 354 350 3 3 349 11 1 356 353 359 357 354 185 182 181 183 182 180 182 187 187
38 13 10 339 348 346 348 336 348 354 350 348 346 347 353 354 352 349 350 347 350 352 353 358 8 4 10 11 15 9 1 352 335 334 295 182 187 185 184 182 184 186 187
77 53 47 353 353 12 346 341 339 348 350 351 349 348 350 348 349 347 347 344 347 351 357 1 359 14 14 17 14 20 16 4 359 356 3 42 112 162 178 180 189 191 191
74 55 51 357 8 15 344 331 345 333 345 350 350 349 343 344 346 347 345 343 346 347 355 0 2 10 20 20 19 19 21 21 23 19 22 39 54 50 52 117 153 161 168
103 92 59 14 348 6 6 337 331 332 339 345 345 344 342 340 341 341 342 343 344 344 349 357 360 3 18 21 19 19 23 29 27 26 29 37 46 43 44 54 58 67 95